Crane Lake, MN

2:12 AM CDT on August 17, 2017 (GMT -0500)
Crane Lake

Weather History for KCDD - June, 2012

Change the Weather History Date:

Tuesday, June 26, 2012

  Actual Average Record
Temperature  
Mean Temperature 62 °F -  
Max Temperature 80 °F 73 °F 84 °F (1998)
Min Temperature 44 °F 51 °F 33 °F (2017)
Degree Days  
Heating Degree Days 3    
Growing Degree Days 12 (Base 50)    
Moisture  
Dew Point 49 °F    
Average Humidity 62    
Maximum Humidity 100    
Minimum Humidity 30    
Precipitation  
Precipitation 0.00 in - - ()
Sea Level Pressure  
Sea Level Pressure 29.91 in    
Wind  
Wind Speed 3 mph (South)    
Max Wind Speed 10 mph    
Max Gust Speed 18 mph    
Visibility 10 miles    
Events      
Averages and records for this station are not official NWS values.
T = Trace of Precipitation, MM = Missing Value Source: NWS Daily Summary

Daily Weather History Graph

Daily Weather History Graph

Search for Another Location

Airport or City:

Trip Planner

Search our weather history database for the weather conditions in past years. The results will help you decide how hot, cold, wet, or windy it might be!

Date:

Astronomy

Jun. 26, 2012 Rise Set
Actual Time 5:10 AM CDT 9:14 PM CDT
Civil Twilight 4:29 AM CDT 9:56 PM CDT
Nautical Twilight 3:30 AM CDT 10:54 PM CDT
Astronomical Twilight 1:46 AM CDT 12:38 AM CDT
Moon 1:05 PM CDT (6/26) 12:09 AM CDT (6/26)
Length of Visible Light 17h 27m
Length of Day
16h 03m
Waxing Crescent, 45% of the Moon is Illuminated
Jun 26
Waxing Crescent
Jun 26
First Quarter
Jul 3
Full
Jul 10
Last Quarter
Jul 18
New

Hourly Weather History & Observations

Time (CDT) Temp. Dew Point Humidity Pressure Visibility Wind Dir Wind Speed Gust Speed Precip Events Conditions
12:13 AM 50.0 °F 48.2 °F 94% 30.05 in 10.0 mi Calm Calm - N/A   Clear
12:33 AM 48.2 °F 48.2 °F 100% 30.05 in 10.0 mi Calm Calm - N/A   Clear
12:53 AM 48.2 °F 48.2 °F 100% 30.04 in 10.0 mi Calm Calm - N/A   Clear
1:13 AM 50.0 °F 48.2 °F 94% 30.04 in 10.0 mi Calm Calm - N/A   Clear
1:33 AM 50.0 °F 48.2 °F 94% 30.04 in 10.0 mi Calm Calm - N/A   Clear
1:53 AM 48.2 °F 48.2 °F 100% 30.03 in 10.0 mi Calm Calm - N/A   Clear
2:13 AM 48.2 °F 46.4 °F 93% 30.03 in 10.0 mi Calm Calm - N/A   Clear
2:33 AM 48.2 °F 46.4 °F 93% 30.02 in 10.0 mi South 3.5 mph - N/A   Clear
2:53 AM 51.8 °F 48.2 °F 88% 30.02 in 10.0 mi Calm Calm - N/A   Clear
3:13 AM 50.0 °F 46.4 °F 87% 30.03 in 10.0 mi Calm Calm - N/A   Clear
3:33 AM 46.4 °F 46.4 °F 100% 30.03 in 10.0 mi Calm Calm - N/A   Clear
4:13 AM 46.4 °F 44.6 °F 93% 30.02 in 10.0 mi Calm Calm - N/A   Clear
4:33 AM 46.4 °F 44.6 °F 93% 30.02 in 10.0 mi Calm Calm - N/A   Clear
5:13 AM 44.6 °F 44.6 °F 100% 30.03 in 10.0 mi Calm Calm - N/A   Clear
5:33 AM 44.6 °F 44.6 °F 100% 30.02 in 10.0 mi Calm Calm - N/A   Clear
5:53 AM 44.6 °F 44.6 °F 100% 30.01 in 10.0 mi Calm Calm - N/A   Clear
6:13 AM 46.4 °F 44.6 °F 93% 30.01 in 10.0 mi Calm Calm - N/A   Clear
6:33 AM 48.2 °F 46.4 °F 93% 30.01 in 10.0 mi Calm Calm - N/A   Clear
6:53 AM 53.6 °F 51.8 °F 94% 29.99 in 10.0 mi Calm Calm - N/A   Clear
7:13 AM 53.6 °F 51.8 °F 94% 29.99 in 10.0 mi Calm Calm - N/A   Clear
7:33 AM 57.2 °F 51.8 °F 82% 29.98 in 10.0 mi Calm Calm - N/A   Clear
7:53 AM 60.8 °F 51.8 °F 72% 29.98 in 10.0 mi SSE 3.5 mph - N/A   Clear
8:13 AM 62.6 °F 53.6 °F 72% 29.98 in 10.0 mi SSE 3.5 mph - N/A   Clear
8:33 AM 62.6 °F 51.8 °F 68% 29.98 in 10.0 mi SSE 4.6 mph - N/A   Clear
8:53 AM 64.4 °F 51.8 °F 64% 29.97 in 10.0 mi South 9.2 mph - N/A   Clear
9:13 AM 66.2 °F 51.8 °F 60% 29.97 in 10.0 mi South 6.9 mph - N/A   Clear
9:33 AM 68.0 °F 51.8 °F 56% 29.97 in 10.0 mi South 9.2 mph 16.1 mph N/A   Clear
9:53 AM 69.8 °F 51.8 °F 53% 29.97 in 10.0 mi South 9.2 mph - N/A   Clear
10:13 AM 69.8 °F 51.8 °F 53% 29.97 in 10.0 mi South 9.2 mph - N/A   Clear
10:33 AM 69.8 °F 51.8 °F 53% 29.96 in 10.0 mi SSE 9.2 mph - N/A   Clear
10:53 AM 71.6 °F 51.8 °F 50% 29.96 in 10.0 mi South 6.9 mph - N/A   Clear
11:13 AM 71.6 °F 51.8 °F 50% 29.97 in 10.0 mi South 8.1 mph - N/A   Clear
11:33 AM 71.6 °F 51.8 °F 50% 29.96 in 10.0 mi South 4.6 mph - N/A   Clear
11:53 AM 71.6 °F 51.8 °F 50% 29.95 in 10.0 mi Calm Calm - N/A   Clear
12:13 PM 71.6 °F 51.8 °F 50% 29.95 in 10.0 mi South 4.6 mph - N/A   Clear
12:33 PM 73.4 °F 51.8 °F 47% 29.94 in 10.0 mi South 5.8 mph - N/A   Clear
12:53 PM 73.4 °F 51.8 °F 47% 29.92 in 10.0 mi South 3.5 mph - N/A   Clear
1:14 PM 75.2 °F 51.8 °F 44% 29.91 in 10.0 mi South 8.1 mph - N/A   Clear
1:33 PM 77.0 °F 51.8 °F 41% 29.90 in 10.0 mi SSE 5.8 mph - N/A   Clear
1:53 PM 77.0 °F 51.8 °F 41% 29.89 in 10.0 mi SSE 5.8 mph - N/A   Clear
2:13 PM 77.0 °F 51.8 °F 41% 29.88 in 10.0 mi South 5.8 mph - N/A   Clear
2:33 PM 77.0 °F 51.8 °F 41% 29.87 in 10.0 mi South 5.8 mph - N/A   Clear
2:53 PM 78.8 °F 50.0 °F 36% 29.86 in 10.0 mi South 9.2 mph - N/A   Clear
3:13 PM 78.8 °F 51.8 °F 39% 29.85 in 10.0 mi South 9.2 mph 16.1 mph N/A   Clear
3:33 PM 80.6 °F 51.8 °F 37% 29.84 in 10.0 mi South 6.9 mph - N/A   Clear
3:53 PM 78.8 °F 50.0 °F 36% 29.83 in 10.0 mi SSE 10.4 mph - N/A   Clear
4:13 PM 80.6 °F 46.4 °F 30% 29.83 in 10.0 mi SSE 10.4 mph 17.3 mph N/A   Clear
4:33 PM 78.8 °F 48.2 °F 34% 29.82 in 10.0 mi SSE 9.2 mph - N/A   Clear
4:53 PM 78.8 °F 48.2 °F 34% 29.82 in 10.0 mi South 8.1 mph 16.1 mph N/A   Clear
5:13 PM 80.6 °F 50.0 °F 34% 29.81 in 10.0 mi South 9.2 mph - N/A   Clear
5:33 PM 78.8 °F 48.2 °F 34% 29.80 in 10.0 mi South 6.9 mph 18.4 mph N/A   Clear
5:53 PM 78.8 °F 44.6 °F 30% 29.79 in 10.0 mi South 9.2 mph 17.3 mph N/A   Clear
6:13 PM 78.8 °F 46.4 °F 32% 29.79 in 10.0 mi South 8.1 mph - N/A   Clear
6:33 PM 78.8 °F 48.2 °F 34% 29.79 in 10.0 mi South 6.9 mph - N/A   Clear
6:53 PM 78.8 °F 50.0 °F 36% 29.79 in 10.0 mi South 6.9 mph - N/A   Clear
7:13 PM 77.0 °F 44.6 °F 32% 29.79 in 10.0 mi SSE 4.6 mph - N/A   Clear
7:33 PM 75.2 °F 46.4 °F 36% 29.78 in 10.0 mi SSE 6.9 mph - N/A   Clear
7:53 PM 73.4 °F 44.6 °F 36% 29.78 in 10.0 mi SSE 4.6 mph - N/A   Clear
8:13 PM 71.6 °F 50.0 °F 46% 29.78 in 10.0 mi Calm Calm - N/A   Clear
8:33 PM 69.8 °F 48.2 °F 46% 29.78 in 10.0 mi Calm Calm - N/A   Clear
8:53 PM 66.2 °F 51.8 °F 60% 29.77 in 10.0 mi SSE 4.6 mph - N/A   Clear
9:13 PM 66.2 °F 51.8 °F 60% 29.77 in 10.0 mi Calm Calm - N/A   Clear
9:33 PM 64.4 °F 51.8 °F 64% 29.78 in 10.0 mi SSE 3.5 mph - N/A   Clear
9:53 PM 64.4 °F 51.8 °F 64% 29.78 in 10.0 mi Calm Calm - N/A   Clear
10:13 PM 64.4 °F 50.0 °F 59% 29.78 in 10.0 mi SSE 3.5 mph - N/A   Clear
10:33 PM 64.4 °F 50.0 °F 59% 29.79 in 10.0 mi Calm Calm - N/A   Clear
10:53 PM 64.4 °F 50.0 °F 59% 29.78 in 10.0 mi SSE 4.6 mph - N/A   Clear
11:33 PM 64.4 °F 51.8 °F 64% 29.78 in 10.0 mi SE 4.6 mph - N/A   Clear
11:53 PM 64.4 °F 51.8 °F 64% 29.78 in 10.0 mi SSE 3.5 mph - N/A   Clear